Weather History for Rocky Mount, NC

Change the Weather History Date:

Sunday, February 10, 2013

  Actual Average Record
Temperature  
Mean Temperature 38 °F -  
Max Temperature 53 °F 50 °F 75 °F (1990)
Min Temperature 24 °F 26 °F 4 °F (1979)
Degree Days  
Heating Degree Days 26    
Moisture  
Dew Point 24 °F    
Average Humidity 60    
Maximum Humidity 89    
Minimum Humidity 30    
Precipitation  
Precipitation 0.00 in - - ()
Sea Level Pressure  
Sea Level Pressure 30.40 in    
Wind  
Wind Speed 1 mph (East)    
Max Wind Speed 7 mph    
Max Gust Speed -    
Visibility 10 miles    
Events      
Averages and records for this station are not official NWS values.
T = Trace of Precipitation, MM = Missing Value Source: NWS Daily Summary

Daily Weather History Graph

Daily Weather History Graph

Search for Another Location

Airport:

Trip Planner

Search our weather history database for the weather conditions in past years. The results will help you decide how hot, cold, wet, or windy it might be!

Date:

Astronomy

Feb. 10, 2013 Rise Set
Actual Time 7:03 AM EST 5:48 PM EST
Civil Twilight 6:37 AM EST 6:14 PM EST
Nautical Twilight 6:07 AM EST 6:45 PM EST
Astronomical Twilight 5:37 AM EST 7:14 PM EST
Moon 6:54 AM EST (2/10) 6:33 PM EST (2/10)
Length of Visible Light 11h 37m
Length of Day
10h 44m
New Moon, 0% of the Moon is Illuminated
Feb 10
New Moon
Feb 17
First Quarter
Feb 25
Full
Mar 4
Last Quarter
Mar 11
New

Hourly Weather History & Observations

Time (EST) Temp. Windchill Dew Point Humidity Pressure Visibility Wind Dir Wind Speed Gust Speed Precip Events Conditions
12:53 AM 28.0 °F - 23.0 °F 81% 30.40 in 10.0 mi Calm Calm - N/A   Clear
1:53 AM 27.0 °F - 24.1 °F 89% 30.40 in 10.0 mi Calm Calm - N/A   Clear
2:53 AM 26.1 °F - 21.9 °F 84% 30.42 in 10.0 mi Calm Calm - N/A   Clear
3:53 AM 26.1 °F - 23.0 °F 88% 30.43 in 10.0 mi Calm Calm - N/A   Clear
4:53 AM 24.1 °F - 21.0 °F 88% 30.43 in 10.0 mi Calm Calm - N/A   Clear
5:53 AM 25.0 °F 20.7 °F 21.9 °F 88% 30.44 in 9.0 mi North 3.5 mph - N/A   Clear
7:53 AM 28.0 °F 24.2 °F 23.0 °F 81% 30.48 in 10.0 mi North 3.5 mph - N/A   Clear
8:53 AM 34.0 °F - 24.1 °F 67% 30.50 in 10.0 mi Calm Calm - N/A   Clear
9:53 AM 37.9 °F 35.5 °F 23.0 °F 55% 30.50 in 10.0 mi East 3.5 mph - N/A   Clear
10:53 AM 42.1 °F 39.2 °F 21.9 °F 45% 30.50 in 10.0 mi Variable 4.6 mph - N/A   Clear
11:53 AM 43.0 °F - 23.0 °F 45% 30.48 in 10.0 mi Calm Calm - N/A   Clear
12:53 PM 46.9 °F - 19.9 °F 34% 30.46 in 10.0 mi Calm Calm - N/A   Clear
1:53 PM 51.1 °F - 21.9 °F 32% 30.42 in 10.0 mi Variable 4.6 mph - N/A   Clear
2:53 PM 52.0 °F - 21.0 °F 30% 30.40 in 10.0 mi South 5.8 mph - N/A   Clear
3:53 PM 53.1 °F - 23.0 °F 31% 30.36 in 10.0 mi Variable 6.9 mph - N/A   Clear
4:53 PM 51.1 °F - 21.9 °F 32% 30.36 in 10.0 mi Variable 3.5 mph - N/A   Clear
5:53 PM 45.0 °F - 28.0 °F 52% 30.35 in 10.0 mi Calm Calm - N/A   Clear
6:53 PM 42.1 °F - 28.9 °F 60% 30.33 in 10.0 mi Calm Calm - N/A   Partly Cloudy
7:53 PM 43.0 °F - 30.9 °F 62% 30.33 in 10.0 mi Calm Calm - N/A   Scattered Clouds
8:53 PM 46.9 °F - 28.0 °F 48% 30.32 in 10.0 mi Calm Calm - N/A   Overcast
9:53 PM 46.9 °F - 28.9 °F 50% 30.32 in 10.0 mi ESE 3.5 mph - N/A   Overcast
11:53 PM 46.0 °F 43.1 °F 36.0 °F 68% 30.26 in 10.0 mi SE 5.8 mph - N/A   Overcast